Beatrice, NE

7:02 AM CDT on May 24, 2017 (GMT -0500)
Beatrice Municipal

Weather History for KBIE - December, 2013

Change the Weather History Date:

Friday, December 27, 2013

  Actual Average Record
Temperature  
Mean Temperature 38 °F -  
Max Temperature 58 °F 36 °F 62 °F (1976)
Min Temperature 19 °F 20 °F -2 °F (2000)
Degree Days  
Heating Degree Days 26    
Moisture  
Dew Point 24 °F    
Average Humidity 67    
Maximum Humidity 90    
Minimum Humidity 28    
Precipitation  
Precipitation 0.00 in - - ()
Sea Level Pressure  
Sea Level Pressure 30.20 in    
Wind  
Wind Speed 4 mph (SSW)    
Max Wind Speed 15 mph    
Max Gust Speed 22 mph    
Visibility 10 miles    
Events      
Averages and records for this station are not official NWS values.
T = Trace of Precipitation, MM = Missing Value Source: NWS Daily Summary

Daily Weather History Graph

Daily Weather History Graph

Search for Another Location

Airport or City:

Trip Planner

Search our weather history database for the weather conditions in past years. The results will help you decide how hot, cold, wet, or windy it might be!

Date:

Astronomy

Dec. 27, 2013 Rise Set
Actual Time 7:48 AM CST 5:07 PM CST
Civil Twilight 7:18 AM CST 5:38 PM CST
Nautical Twilight 6:43 AM CST 6:12 PM CST
Astronomical Twilight 6:10 AM CST 6:45 PM CST
Moon 2:21 AM CST (12/27) 1:19 PM CST (12/27)
Length of Visible Light 10h 20m
Length of Day
9h 19m
Waning Crescent, 28% of the Moon is Illuminated
Dec 27
Waning Crescent
Jan 1
New
Jan 7
First Quarter
Jan 15
Full
Jan 23
Last Quarter

Hourly Weather History & Observations

Time (CST) Temp. Windchill Dew Point Humidity Pressure Visibility Wind Dir Wind Speed Gust Speed Precip Events Conditions
12:15 AM 23.0 °F - 19.6 °F 87% 30.27 in 10.0 mi Calm Calm - N/A   Clear
12:35 AM 23.4 °F - 18.9 °F 83% 30.27 in 10.0 mi Calm Calm - N/A   Clear
12:55 AM 22.1 °F - 18.9 °F 87% 30.27 in 10.0 mi Calm Calm - N/A   Clear
1:15 AM 22.8 °F - 19.8 °F 88% 30.27 in 10.0 mi Calm Calm - N/A   Clear
1:35 AM 24.4 °F - 20.5 °F 85% 30.27 in 10.0 mi Calm Calm - N/A   Clear
1:55 AM 25.3 °F - 22.6 °F 89% 30.27 in 10.0 mi Calm Calm - N/A   Clear
2:15 AM 20.8 °F - 17.8 °F 88% 30.27 in 10.0 mi Calm Calm - N/A   Clear
2:35 AM 19.2 °F - 16.5 °F 89% 30.27 in 10.0 mi Calm Calm - N/A   Clear
2:55 AM 19.4 °F - 16.3 °F 88% 30.27 in 10.0 mi Calm Calm - N/A   Clear
3:15 AM 19.4 °F - 15.8 °F 86% 30.27 in 10.0 mi Calm Calm - N/A   Clear
3:35 AM 20.8 °F - 17.6 °F 87% 30.27 in 10.0 mi Calm Calm - N/A   Clear
3:55 AM 19.0 °F - 14.9 °F 84% 30.26 in 10.0 mi Calm Calm - N/A   Clear
4:15 AM 20.1 °F - 17.2 °F 89% 30.26 in 10.0 mi Calm Calm - N/A   Clear
4:35 AM 19.6 °F - 17.1 °F 90% 30.25 in 10.0 mi Calm Calm - N/A   Clear
4:55 AM 19.6 °F - 16.3 °F 87% 30.25 in 10.0 mi Calm Calm - N/A   Clear
5:15 AM 19.4 °F - 16.2 °F 87% 30.26 in 10.0 mi Calm Calm - N/A   Clear
5:35 AM 19.2 °F - 15.1 °F 84% 30.26 in 10.0 mi Calm Calm - N/A   Clear
5:55 AM 19.2 °F - 15.4 °F 85% 30.27 in 10.0 mi Calm Calm - N/A   Clear
6:15 AM 19.0 °F - 14.9 °F 84% 30.27 in 10.0 mi Calm Calm - N/A   Clear
6:35 AM 19.6 °F - 17.1 °F 90% 30.27 in 10.0 mi Calm Calm - N/A   Clear
6:55 AM 20.8 °F - 17.8 °F 88% 30.26 in 10.0 mi Calm Calm - N/A   Clear
7:15 AM 20.8 °F 16.0 °F 17.6 °F 87% 30.26 in 10.0 mi South 3.5 mph - N/A   Clear
7:35 AM 20.1 °F 15.2 °F 17.4 °F 89% 30.24 in 10.0 mi SSE 3.5 mph - N/A   Clear
7:55 AM 22.1 °F - 18.5 °F 86% 30.24 in 10.0 mi Calm Calm - N/A   Clear
8:15 AM 21.2 °F 16.4 °F 18.0 °F 87% 30.25 in 10.0 mi East 3.5 mph - N/A   Clear
8:35 AM 22.1 °F 15.9 °F 18.9 °F 87% 30.26 in 10.0 mi ESE 4.6 mph - N/A   Clear
8:55 AM 25.2 °F - 21.0 °F 84% 30.27 in 10.0 mi Calm Calm - N/A   Clear
9:15 AM 27.7 °F 23.8 °F 22.5 °F 81% 30.27 in 10.0 mi South 3.5 mph - N/A   Clear
9:35 AM 30.6 °F - 24.4 °F 78% 30.27 in 10.0 mi Calm Calm - N/A   Clear
9:55 AM 33.6 °F 28.4 °F 27.0 °F 77% 30.26 in 10.0 mi SSW 5.8 mph - N/A   Clear
10:15 AM 38.1 °F 32.3 °F 27.9 °F 67% 30.25 in 10.0 mi SW 8.1 mph - N/A   Clear
10:35 AM 41.5 °F 36.4 °F 27.5 °F 57% 30.25 in 10.0 mi SW 8.1 mph - N/A   Clear
10:55 AM 44.6 °F 39.2 °F 27.7 °F 52% 30.24 in 10.0 mi WSW 10.4 mph - N/A   Clear
11:15 AM 47.3 °F - 28.2 °F 48% 30.24 in 10.0 mi SSW 5.8 mph - N/A   Clear
11:35 AM 49.3 °F - 27.9 °F 44% 30.23 in 10.0 mi SW 10.4 mph - N/A   Clear
11:55 AM 51.1 °F - 28.9 °F 43% 30.22 in 10.0 mi SSW 9.2 mph - N/A   Clear
12:15 PM 53.1 °F - 29.5 °F 40% 30.20 in 10.0 mi SSW 9.2 mph - N/A   Clear
12:35 PM 55.4 °F - 29.5 °F 37% 30.19 in 10.0 mi SSW 9.2 mph - N/A   Clear
12:55 PM 56.3 °F - 28.2 °F 34% 30.18 in 10.0 mi SSW 13.8 mph - N/A   Clear
1:15 PM 58.1 °F - 26.2 °F 30% 30.17 in 10.0 mi SW 15.0 mph 21.9 mph N/A   Clear
1:35 PM 58.8 °F - 25.7 °F 28% 30.16 in 10.0 mi SW 15.0 mph - N/A   Clear
1:55 PM 56.7 °F - 29.5 °F 35% 30.15 in 10.0 mi SSW 13.8 mph - N/A   Clear
2:15 PM 55.4 °F - 29.8 °F 38% 30.15 in 10.0 mi SSW 15.0 mph - N/A   Clear
2:35 PM 55.4 °F - 30.2 °F 38% 30.15 in 10.0 mi SSW 12.7 mph - N/A   Clear
2:55 PM 56.3 °F - 30.4 °F 37% 30.14 in 10.0 mi SSW 12.7 mph - N/A   Clear
3:15 PM 54.3 °F - 30.0 °F 39% 30.14 in 10.0 mi SSW 12.7 mph 17.3 mph N/A   Clear
3:35 PM 52.9 °F - 29.8 °F 41% 30.13 in 10.0 mi SSW 12.7 mph - N/A   Clear
3:55 PM 52.0 °F - 29.3 °F 42% 30.13 in 10.0 mi SSW 15.0 mph - N/A   Clear
4:15 PM 50.9 °F - 29.5 °F 44% 30.13 in 10.0 mi SSW 11.5 mph - N/A   Clear
4:35 PM 49.3 °F - 29.1 °F 46% 30.13 in 10.0 mi SSW 11.5 mph - N/A   Clear
4:55 PM 47.1 °F - 28.4 °F 48% 30.13 in 10.0 mi SSW 9.2 mph - N/A   Clear
5:15 PM 45.7 °F 42.0 °F 28.2 °F 51% 30.13 in 10.0 mi South 6.9 mph - N/A   Clear
5:35 PM 43.7 °F 39.1 °F 28.2 °F 54% 30.13 in 10.0 mi South 8.1 mph - N/A   Clear
5:55 PM 41.9 °F 36.3 °F 28.0 °F 58% 30.13 in 10.0 mi South 9.2 mph - N/A   Clear
6:15 PM 41.0 °F 34.7 °F 28.2 °F 60% 30.13 in 10.0 mi SSW 10.4 mph - N/A   Clear
6:35 PM 39.6 °F 34.0 °F 27.9 °F 63% 30.13 in 10.0 mi SSW 8.1 mph - N/A   Clear
6:55 PM 39.7 °F 33.2 °F 27.9 °F 63% 30.13 in 10.0 mi SSW 10.4 mph - N/A   Clear
7:15 PM 39.4 °F 33.2 °F 27.7 °F 63% 30.13 in 10.0 mi SSW 9.2 mph - N/A   Clear
7:35 PM 38.3 °F 31.9 °F 27.9 °F 66% 30.13 in 10.0 mi SSW 9.2 mph - N/A   Clear
7:55 PM 37.6 °F 31.0 °F 27.5 °F 67% 30.13 in 10.0 mi SSW 9.2 mph - N/A   Clear
8:15 PM 37.4 °F 30.8 °F 27.5 °F 67% 30.13 in 10.0 mi SSW 9.2 mph - N/A   Clear
8:35 PM 36.9 °F 31.4 °F 27.1 °F 68% 30.13 in 10.0 mi SSW 6.9 mph - N/A   Clear
8:55 PM 36.5 °F 31.0 °F 26.8 °F 68% 30.14 in 10.0 mi SSW 6.9 mph - N/A   Clear
9:15 PM 36.9 °F 32.2 °F 27.0 °F 67% 30.13 in 10.0 mi SSW 5.8 mph - N/A   Clear
9:35 PM 37.4 °F 32.8 °F 27.0 °F 66% 30.13 in 10.0 mi SSW 5.8 mph - N/A   Clear
9:55 PM 37.2 °F 31.2 °F 27.1 °F 67% 30.12 in 10.0 mi SSW 8.1 mph - N/A   Clear
10:15 PM 37.6 °F 31.6 °F 27.5 °F 67% 30.12 in 10.0 mi SSW 8.1 mph - N/A   Clear
10:35 PM 37.0 °F 30.4 °F 27.5 °F 68% 30.11 in 10.0 mi SSW 9.2 mph - N/A   Clear
10:55 PM 37.6 °F 32.3 °F 28.2 °F 69% 30.11 in 10.0 mi South 6.9 mph - N/A   Clear
11:15 PM 34.0 °F 29.8 °F 27.1 °F 76% 30.11 in 10.0 mi East 4.6 mph - N/A   Clear
11:35 PM 33.8 °F 29.6 °F 27.3 °F 77% 30.10 in 10.0 mi SE 4.6 mph - N/A   Clear
11:55 PM 33.6 °F 27.5 °F 27.5 °F 78% 30.09 in 10.0 mi SSE 6.9 mph - N/A   Clear